Time,TemperatureF,DewpointF,PressureIn,WindDirection,WindDirectionDegrees,WindSpeedMPH,WindSpeedGustMPH,Humidity,HourlyPrecipIn,Conditions,Clouds,dailyrainin,SoftwareType,DateUTC
2016-07-25 00:00:00,76.0,72.1,30.01,South,180,1.1,1.6,88,0.00,,,0.00,WSDL version 536,2016-07-25 05:00:00,
2016-07-25 00:05:00,76.0,72.1,30.01,South,180,0.2,1.6,88,0.00,,,0.00,WSDL version 536,2016-07-25 05:05:00,
2016-07-25 00:10:00,75.9,71.9,30.01,South,180,1.3,2.2,88,0.00,,,0.00,WSDL version 536,2016-07-25 05:10:00,
2016-07-25 00:15:00,75.8,71.9,30.01,South,180,0.6,2.2,88,0.00,,,0.00,WSDL version 536,2016-07-25 05:15:00,
2016-07-25 00:20:00,75.7,71.8,30.01,South,180,0.0,2.0,88,0.00,,,0.00,WSDL version 536,2016-07-25 05:20:00,
2016-07-25 00:25:00,75.6,71.7,29.98,SSE,158,1.3,2.0,88,0.00,,,0.00,WSDL version 536,2016-07-25 05:25:00,
2016-07-25 00:30:00,75.5,71.8,29.98,SSE,165,1.3,2.7,88,0.00,,,0.00,WSDL version 536,2016-07-25 05:30:00,
2016-07-25 00:35:00,75.5,71.9,29.98,SSE,160,1.1,2.7,89,0.00,,,0.00,WSDL version 536,2016-07-25 05:35:00,
2016-07-25 00:40:00,75.5,72.0,29.98,South,171,2.2,3.6,89,0.00,,,0.00,WSDL version 536,2016-07-25 05:40:00,
2016-07-25 00:45:00,75.5,71.9,29.98,SSE,158,0.3,3.6,89,0.00,,,0.00,WSDL version 536,2016-07-25 05:45:00,
2016-07-25 00:50:00,75.4,72.0,29.98,South,183,0.9,1.6,89,0.00,,,0.00,WSDL version 536,2016-07-25 05:50:00,
2016-07-25 00:55:00,75.5,72.2,29.98,South,177,1.8,3.8,90,0.00,,,0.00,WSDL version 536,2016-07-25 05:55:00,
2016-07-25 01:01:00,75.6,72.2,29.98,SSW,206,1.7,3.8,90,0.00,,,0.00,WSDL version 536,2016-07-25 06:01:00,
2016-07-25 01:06:00,75.7,72.4,29.98,South,191,1.7,4.0,90,0.00,,,0.00,WSDL version 536,2016-07-25 06:06:00,
2016-07-25 01:11:00,75.9,72.6,29.98,South,188,2.7,5.4,90,0.00,,,0.00,WSDL version 536,2016-07-25 06:11:00,
2016-07-25 01:16:00,75.9,72.4,29.98,South,169,2.5,5.4,89,0.00,,,0.00,WSDL version 536,2016-07-25 06:16:00,
2016-07-25 01:21:00,75.9,72.6,29.98,SSW,198,2.4,3.6,90,0.00,,,0.00,WSDL version 536,2016-07-25 06:21:00,
2016-07-25 01:26:00,75.9,72.6,29.98,SW,221,1.9,3.6,90,0.00,,,0.00,WSDL version 536,2016-07-25 06:26:00,
2016-07-25 01:31:00,75.9,72.6,29.98,SW,235,3.0,4.7,90,0.00,,,0.00,WSDL version 536,2016-07-25 06:31:00,
2016-07-25 01:36:00,75.9,72.3,29.98,SSE,167,2.6,5.4,89,0.00,,,0.00,WSDL version 536,2016-07-25 06:36:00,
2016-07-25 01:41:00,76.0,72.2,29.98,SSW,194,3.2,6.0,88,0.00,,,0.00,WSDL version 536,2016-07-25 06:41:00,
2016-07-25 01:46:00,76.0,72.1,29.98,SW,231,2.4,6.0,88,0.00,,,0.00,WSDL version 536,2016-07-25 06:46:00,
2016-07-25 01:51:00,75.9,71.6,29.98,South,188,2.2,4.0,87,0.00,,,0.00,WSDL version 536,2016-07-25 06:51:00,
2016-07-25 01:56:00,75.9,71.6,29.98,SSW,203,1.6,4.0,87,0.00,,,0.00,WSDL version 536,2016-07-25 06:56:00,
2016-07-25 02:01:00,75.7,71.5,29.98,South,176,1.3,3.8,87,0.00,,,0.00,WSDL version 536,2016-07-25 07:01:00,
2016-07-25 02:06:00,75.6,71.1,29.98,South,169,2.3,5.4,86,0.00,,,0.00,WSDL version 536,2016-07-25 07:06:00,
2016-07-25 02:11:00,75.5,71.0,29.98,South,176,1.6,5.4,86,0.00,,,0.00,WSDL version 536,2016-07-25 07:11:00,
2016-07-25 02:16:00,75.4,70.9,29.98,South,183,1.6,4.0,86,0.00,,,0.00,WSDL version 536,2016-07-25 07:16:00,
2016-07-25 02:21:00,75.2,70.8,29.98,SSW,197,1.7,3.6,86,0.00,,,0.00,WSDL version 536,2016-07-25 07:21:00,
2016-07-25 02:26:00,75.0,70.5,29.98,South,172,1.7,3.6,86,0.00,,,0.00,WSDL version 536,2016-07-25 07:26:00,
2016-07-25 02:31:00,74.9,70.5,29.98,South,184,1.3,2.7,86,0.00,,,0.00,WSDL version 536,2016-07-25 07:31:00,
2016-07-25 02:37:00,74.7,70.5,29.98,South,191,1.0,2.9,87,0.00,,,0.00,WSDL version 536,2016-07-25 07:37:00,
2016-07-25 02:42:00,74.6,70.4,29.98,SSW,203,0.0,2.9,87,0.00,,,0.00,WSDL version 536,2016-07-25 07:42:00,
2016-07-25 02:47:00,74.4,70.0,29.98,SSW,203,0.0,1.3,86,0.00,,,0.00,WSDL version 536,2016-07-25 07:47:00,
2016-07-25 02:52:00,74.3,69.8,29.95,SSW,193,0.0,1.3,86,0.00,,,0.00,WSDL version 536,2016-07-25 07:52:00,
2016-07-25 02:57:00,74.1,69.7,29.95,SE,135,0.0,0.0,86,0.00,,,0.00,WSDL version 536,2016-07-25 07:57:00,
2016-07-25 03:02:00,73.9,69.8,29.95,SSE,158,0.0,0.0,87,0.00,,,0.00,WSDL version 536,2016-07-25 08:02:00,
2016-07-25 03:07:00,73.8,69.6,29.98,SSE,158,0.0,0.0,87,0.00,,,0.00,WSDL version 536,2016-07-25 08:07:00,
2016-07-25 03:12:00,73.6,69.5,29.98,SSE,158,0.0,0.0,87,0.00,,,0.00,WSDL version 536,2016-07-25 08:12:00,
2016-07-25 03:17:00,73.5,69.3,29.98,SSE,158,0.0,0.0,87,0.00,,,0.00,WSDL version 536,2016-07-25 08:17:00,
2016-07-25 03:22:00,73.3,69.2,29.98,SSE,158,0.9,1.6,87,0.00,,,0.00,WSDL version 536,2016-07-25 08:22:00,
2016-07-25 03:27:00,73.2,69.0,29.98,South,180,1.2,2.0,87,0.00,,,0.00,WSDL version 536,2016-07-25 08:27:00,
2016-07-25 03:32:00,73.1,69.1,29.98,SSW,197,2.2,2.2,87,0.00,,,0.00,WSDL version 536,2016-07-25 08:32:00,
2016-07-25 03:37:00,73.1,69.0,29.98,South,171,1.3,2.2,87,0.00,,,0.00,WSDL version 536,2016-07-25 08:37:00,
2016-07-25 03:42:00,73.2,69.0,29.98,South,185,0.0,2.0,87,0.00,,,0.00,WSDL version 536,2016-07-25 08:42:00,
2016-07-25 03:47:00,73.2,69.1,29.98,SSW,203,0.8,2.5,87,0.00,,,0.00,WSDL version 536,2016-07-25 08:47:00,
2016-07-25 03:52:00,73.3,69.1,29.98,SSE,158,0.0,2.5,87,0.00,,,0.00,WSDL version 536,2016-07-25 08:52:00,
2016-07-25 03:57:00,73.3,69.1,29.98,SW,230,0.6,2.0,87,0.00,,,0.00,WSDL version 536,2016-07-25 08:57:00,
2016-07-25 04:02:00,73.3,69.1,29.98,SSW,203,1.1,2.2,87,0.00,,,0.00,WSDL version 536,2016-07-25 09:02:00,
2016-07-25 04:07:00,73.4,69.2,29.95,SSE,161,1.4,3.6,87,0.00,,,0.00,WSDL version 536,2016-07-25 09:07:00,
2016-07-25 04:13:00,73.5,69.1,29.95,South,189,2.2,3.6,86,0.00,,,0.00,WSDL version 536,2016-07-25 09:13:00,
2016-07-25 04:18:00,73.6,69.2,29.95,South,173,2.5,3.6,86,0.00,,,0.00,WSDL version 536,2016-07-25 09:18:00,
2016-07-25 04:23:00,73.8,69.3,29.98,South,180,1.7,3.1,86,0.00,,,0.00,WSDL version 536,2016-07-25 09:23:00,
2016-07-25 04:28:00,73.8,69.2,29.98,South,183,0.2,3.1,86,0.00,,,0.00,WSDL version 536,2016-07-25 09:28:00,
2016-07-25 04:33:00,73.8,69.0,29.98,SSW,195,1.1,2.2,85,0.00,,,0.00,WSDL version 536,2016-07-25 09:33:00,
2016-07-25 04:38:00,73.8,69.0,29.98,SSW,203,1.3,3.1,85,0.00,,,0.00,WSDL version 536,2016-07-25 09:38:00,
2016-07-25 04:43:00,73.8,69.0,29.98,SW,236,0.7,3.1,85,0.00,,,0.00,WSDL version 536,2016-07-25 09:43:00,
2016-07-25 04:48:00,73.8,69.0,29.98,WSW,248,0.0,2.5,85,0.00,,,0.00,WSDL version 536,2016-07-25 09:48:00,
2016-07-25 04:53:00,73.8,69.0,30.01,SW,234,1.0,2.2,85,0.00,,,0.00,WSDL version 536,2016-07-25 09:53:00,
2016-07-25 04:58:00,73.7,68.9,30.01,South,174,0.3,2.2,85,0.00,,,0.00,WSDL version 536,2016-07-25 09:58:00,
2016-07-25 05:03:00,73.6,68.8,30.01,South,189,2.1,2.2,85,0.00,,,0.00,WSDL version 536,2016-07-25 10:03:00,
2016-07-25 05:09:00,73.6,68.8,29.98,South,180,1.1,2.7,85,0.00,,,0.00,WSDL version 536,2016-07-25 10:09:00,
2016-07-25 05:14:00,73.5,68.7,29.98,SSE,167,0.3,2.7,85,0.00,,,0.00,WSDL version 536,2016-07-25 10:14:00,
2016-07-25 05:19:00,73.5,68.7,29.98,SSW,197,1.1,2.7,85,0.00,,,0.00,WSDL version 536,2016-07-25 10:19:00,
2016-07-25 05:24:00,73.5,68.7,29.98,South,190,0.4,2.5,85,0.00,,,0.00,WSDL version 536,2016-07-25 10:24:00,
2016-07-25 05:29:00,73.5,68.9,29.98,South,191,1.8,2.5,86,0.00,,,0.00,WSDL version 536,2016-07-25 10:29:00,
2016-07-25 05:34:00,73.3,68.6,29.98,SSW,203,0.0,2.5,85,0.00,,,0.00,WSDL version 536,2016-07-25 10:34:00,
2016-07-25 05:39:00,73.2,68.4,29.98,SW,230,1.3,2.9,85,0.00,,,0.00,WSDL version 536,2016-07-25 10:39:00,
2016-07-25 05:44:00,73.1,68.5,29.98,South,169,0.0,2.9,86,0.00,,,0.00,WSDL version 536,2016-07-25 10:44:00,
2016-07-25 05:49:00,73.1,68.7,29.98,South,180,1.0,2.0,86,0.00,,,0.00,WSDL version 536,2016-07-25 10:49:00,
2016-07-25 05:54:00,73.1,68.7,30.01,SSW,193,1.8,2.0,86,0.00,,,0.00,WSDL version 536,2016-07-25 10:54:00,
2016-07-25 05:59:00,73.1,68.7,30.01,South,174,0.4,2.0,86,0.00,,,0.00,WSDL version 536,2016-07-25 10:59:00,
2016-07-25 06:04:00,73.0,68.5,30.01,SSW,203,1.2,2.0,86,0.00,,,0.00,WSDL version 536,2016-07-25 11:04:00,
2016-07-25 06:09:00,73.0,68.5,30.01,WNW,290,0.2,1.6,86,0.00,,,0.00,WSDL version 536,2016-07-25 11:09:00,
2016-07-25 06:14:00,73.0,68.8,30.01,NNE,25,1.1,2.2,87,0.00,,,0.00,WSDL version 536,2016-07-25 11:14:00,
2016-07-25 06:19:00,73.0,68.8,30.01,ESE,110,0.3,2.2,87,0.00,,,0.00,WSDL version 536,2016-07-25 11:19:00,
2016-07-25 06:24:00,73.0,68.8,30.04,East,95,1.0,2.2,87,0.00,,,0.00,WSDL version 536,2016-07-25 11:24:00,
2016-07-25 06:29:00,73.0,69.1,30.04,ENE,68,1.2,3.1,88,0.00,,,0.00,WSDL version 536,2016-07-25 11:29:00,
2016-07-25 06:35:00,73.0,69.1,30.04,South,180,1.1,3.1,88,0.00,,,0.00,WSDL version 536,2016-07-25 11:35:00,
2016-07-25 06:40:00,72.8,69.0,30.04,ENE,68,0.5,2.5,88,0.00,,,0.00,WSDL version 536,2016-07-25 11:40:00,
2016-07-25 06:45:00,72.8,68.9,30.04,South,177,0.0,1.6,88,0.00,,,0.00,WSDL version 536,2016-07-25 11:45:00,
2016-07-25 06:50:00,72.8,69.1,30.04,NNW,338,0.3,2.2,88,0.00,,,0.00,WSDL version 536,2016-07-25 11:50:00,
2016-07-25 06:55:00,72.8,69.2,30.04,NNW,338,0.0,2.2,89,0.00,,,0.00,WSDL version 536,2016-07-25 11:55:00,
2016-07-25 07:00:00,72.8,69.2,30.04,WNW,293,0.0,1.3,89,0.00,,,0.00,WSDL version 536,2016-07-25 12:00:00,
2016-07-25 07:05:00,72.9,69.3,30.04,NE,45,0.3,1.6,89,0.00,,,0.00,WSDL version 536,2016-07-25 12:05:00,
2016-07-25 07:10:00,73.0,69.5,30.04,NW,304,0.0,2.2,89,0.00,,,0.00,WSDL version 536,2016-07-25 12:10:00,
2016-07-25 07:15:00,73.3,69.7,30.04,NNE,26,0.0,2.2,89,0.00,,,0.00,WSDL version 536,2016-07-25 12:15:00,
2016-07-25 07:20:00,73.5,69.9,30.04,ESE,109,0.0,0.9,89,0.00,,,0.00,WSDL version 536,2016-07-25 12:20:00,
2016-07-25 07:25:00,73.8,70.2,30.04,NW,315,0.7,2.9,89,0.00,,,0.00,WSDL version 536,2016-07-25 12:25:00,
2016-07-25 07:30:00,74.0,70.4,30.04,NW,308,1.6,3.6,89,0.00,,,0.00,WSDL version 536,2016-07-25 12:30:00,
2016-07-25 07:35:00,74.1,70.2,30.04,North,8,1.1,3.6,88,0.00,,,0.00,WSDL version 536,2016-07-25 12:35:00,
2016-07-25 07:40:00,74.3,70.2,30.04,NNW,343,0.9,2.7,87,0.00,,,0.00,WSDL version 536,2016-07-25 12:40:00,
2016-07-25 07:45:00,74.6,70.4,30.04,North,5,1.9,3.4,87,0.00,,,0.00,WSDL version 536,2016-07-25 12:45:00,
2016-07-25 07:50:00,74.7,70.4,30.04,NNE,30,3.4,8.1,87,0.00,,,0.00,WSDL version 536,2016-07-25 12:50:00,
2016-07-25 07:55:00,74.7,70.2,30.04,East,81,2.1,8.1,86,0.00,,,0.00,WSDL version 536,2016-07-25 12:55:00,
2016-07-25 08:00:00,74.5,69.8,30.04,NE,42,2.3,7.6,85,0.00,,,0.00,WSDL version 536,2016-07-25 13:00:00,
2016-07-25 08:05:00,74.5,69.7,30.04,NNE,20,2.6,5.8,85,0.00,,,0.00,WSDL version 536,2016-07-25 13:05:00,
2016-07-25 08:10:00,74.4,69.6,30.04,ENE,59,1.5,4.3,85,0.00,,,0.00,WSDL version 536,2016-07-25 13:10:00,
2016-07-25 08:15:00,74.3,69.5,30.04,East,79,1.3,2.7,85,0.00,,,0.00,WSDL version 536,2016-07-25 13:15:00,
2016-07-25 08:20:00,74.1,69.4,30.04,NE,43,2.7,4.0,85,0.00,,,0.00,WSDL version 536,2016-07-25 13:20:00,
2016-07-25 08:25:00,73.9,69.3,30.04,ENE,65,4.5,7.8,86,0.00,,,0.00,WSDL version 536,2016-07-25 13:25:00,
2016-07-25 08:30:00,73.7,69.2,30.04,NE,56,2.4,8.5,86,0.00,,,0.00,WSDL version 536,2016-07-25 13:30:00,
2016-07-25 08:35:00,73.5,69.0,30.04,East,84,2.1,4.0,86,0.00,,,0.00,WSDL version 536,2016-07-25 13:35:00,
2016-07-25 08:40:00,73.5,69.3,30.04,NE,49,3.5,6.0,87,0.00,,,0.00,WSDL version 536,2016-07-25 13:40:00,
2016-07-25 08:45:00,73.5,69.3,30.04,ENE,68,1.2,6.0,87,0.00,,,0.00,WSDL version 536,2016-07-25 13:45:00,
2016-07-25 08:50:00,73.5,69.6,30.04,ENE,75,2.2,6.9,88,0.00,,,0.00,WSDL version 536,2016-07-25 13:50:00,
2016-07-25 08:55:00,73.4,69.5,30.07,ENE,61,2.4,6.9,88,0.00,,,0.00,WSDL version 536,2016-07-25 13:55:00,
2016-07-25 09:01:00,73.2,69.4,30.07,ENE,63,3.9,6.0,88,0.00,,,0.00,WSDL version 536,2016-07-25 14:01:00,
2016-07-25 09:06:00,73.0,69.4,30.07,East,92,3.9,8.7,88,0.00,,,0.00,WSDL version 536,2016-07-25 14:06:00,
2016-07-25 09:11:00,72.9,69.5,30.07,ESE,113,3.7,8.7,89,0.00,,,0.00,WSDL version 536,2016-07-25 14:11:00,
2016-07-25 09:16:00,72.7,69.5,30.07,NE,53,1.9,5.6,90,0.08,,,0.08,WSDL version 536,2016-07-25 14:16:00,
2016-07-25 09:21:00,72.5,69.6,30.07,NNE,27,2.0,4.3,91,0.17,,,0.17,WSDL version 536,2016-07-25 14:21:00,
2016-07-25 09:26:00,72.2,69.7,30.10,ENE,62,4.3,8.7,92,0.21,,,0.21,WSDL version 536,2016-07-25 14:26:00,
2016-07-25 09:31:00,71.9,69.5,30.10,ENE,74,7.0,12.1,92,0.21,,,0.21,WSDL version 536,2016-07-25 14:31:00,
2016-07-25 09:36:00,71.6,69.4,30.10,ENE,70,7.1,12.1,93,0.21,,,0.21,WSDL version 536,2016-07-25 14:36:00,
2016-07-25 09:41:00,71.4,69.3,30.10,ENE,74,8.0,11.2,93,0.21,,,0.21,WSDL version 536,2016-07-25 14:41:00,
2016-07-25 09:46:00,71.2,69.1,30.10,ENE,73,5.6,11.2,93,0.21,,,0.21,WSDL version 536,2016-07-25 14:46:00,
2016-07-25 09:51:00,71.1,69.0,30.10,East,98,8.3,14.1,93,0.21,,,0.21,WSDL version 536,2016-07-25 14:51:00,
2016-07-25 09:56:00,71.0,68.9,30.07,East,88,9.3,15.4,93,0.21,,,0.21,WSDL version 536,2016-07-25 14:56:00,
2016-07-25 10:01:00,70.8,68.8,30.07,ENE,77,9.3,15.4,93,0.21,,,0.21,WSDL version 536,2016-07-25 15:01:00,
2016-07-25 10:06:00,70.6,68.7,30.07,East,93,10.1,14.5,94,0.21,,,0.21,WSDL version 536,2016-07-25 15:06:00,
2016-07-25 10:11:00,70.4,68.6,30.10,ENE,70,8.0,13.9,94,0.17,,,0.21,WSDL version 536,2016-07-25 15:11:00,
2016-07-25 10:16:00,70.3,68.6,30.10,NE,53,8.5,13.9,94,0.13,,,0.21,WSDL version 536,2016-07-25 15:16:00,
2016-07-25 10:21:00,70.2,68.7,30.10,SE,128,5.5,10.5,95,0.04,,,0.21,WSDL version 536,2016-07-25 15:21:00,
2016-07-25 10:26:00,70.0,68.5,30.10,SSE,160,2.8,9.6,95,0.00,,,0.21,WSDL version 536,2016-07-25 15:26:00,
2016-07-25 10:31:00,70.0,68.5,30.10,SW,218,2.7,8.1,95,0.00,,,0.21,WSDL version 536,2016-07-25 15:31:00,
2016-07-25 10:36:00,70.0,68.6,30.10,WSW,255,5.1,8.5,95,0.04,,,0.25,WSDL version 536,2016-07-25 15:36:00,
2016-07-25 10:41:00,69.9,68.7,30.16,WNW,284,3.5,8.5,96,0.33,,,0.54,WSDL version 536,2016-07-25 15:41:00,
2016-07-25 10:46:00,69.7,68.5,30.16,NE,41,1.7,6.5,96,0.50,,,0.71,WSDL version 536,2016-07-25 15:46:00,
2016-07-25 10:51:00,69.6,68.4,30.16,NE,45,4.3,4.5,96,0.62,,,0.83,WSDL version 536,2016-07-25 15:51:00,
2016-07-25 10:56:00,69.5,68.3,30.16,East,90,2.7,6.5,96,0.79,,,1.00,WSDL version 536,2016-07-25 15:56:00,
2016-07-25 11:01:00,69.4,68.2,30.16,NE,49,1.3,6.5,96,0.83,,,1.04,WSDL version 536,2016-07-25 16:01:00,
2016-07-25 11:06:00,69.4,68.1,30.16,East,96,2.5,4.3,96,0.91,,,1.12,WSDL version 536,2016-07-25 16:06:00,
2016-07-25 11:11:00,69.3,68.1,30.16,East,79,5.0,5.4,96,0.91,,,1.12,WSDL version 536,2016-07-25 16:11:00,
2016-07-25 11:16:00,69.1,67.8,30.16,East,90,5.6,6.5,96,0.95,,,1.16,WSDL version 536,2016-07-25 16:16:00,
2016-07-25 11:21:00,68.8,67.6,30.16,ENE,77,4.7,7.4,96,1.00,,,1.21,WSDL version 536,2016-07-25 16:21:00,
2016-07-25 11:26:00,68.6,67.4,30.13,ENE,64,5.2,7.4,96,1.00,,,1.21,WSDL version 536,2016-07-25 16:26:00,
2016-07-25 11:31:00,68.5,67.3,30.13,ENE,74,4.3,6.7,96,1.00,,,1.21,WSDL version 536,2016-07-25 16:31:00,
2016-07-25 11:36:00,68.5,67.3,30.13,ENE,73,4.3,10.3,96,0.96,,,1.25,WSDL version 536,2016-07-25 16:36:00,
2016-07-25 11:41:00,68.5,67.3,30.13,East,101,4.5,11.0,96,0.71,,,1.25,WSDL version 536,2016-07-25 16:41:00,
2016-07-25 11:46:00,68.5,67.3,30.13,ESE,119,3.5,11.0,96,0.50,,,1.25,WSDL version 536,2016-07-25 16:46:00,
2016-07-25 11:51:00,68.5,67.3,30.13,ESE,109,3.2,7.6,96,0.42,,,1.25,WSDL version 536,2016-07-25 16:51:00,
2016-07-25 11:56:00,68.5,67.3,30.13,East,83,3.2,5.4,96,0.25,,,1.25,WSDL version 536,2016-07-25 16:56:00,
2016-07-25 12:01:00,68.5,67.3,30.13,ESE,103,3.2,5.8,96,0.21,,,1.29,WSDL version 536,2016-07-25 17:01:00,
2016-07-25 12:06:00,68.5,67.3,30.13,East,99,4.5,7.2,96,0.17,,,1.29,WSDL version 536,2016-07-25 17:06:00,
2016-07-25 12:11:00,68.5,67.3,30.07,East,82,5.2,7.6,96,0.13,,,1.29,WSDL version 536,2016-07-25 17:11:00,
2016-07-25 12:16:00,68.5,67.3,30.07,East,95,5.7,7.8,96,0.17,,,1.33,WSDL version 536,2016-07-25 17:16:00,
2016-07-25 12:21:00,68.5,67.3,30.07,ENE,72,4.1,8.5,96,0.12,,,1.33,WSDL version 536,2016-07-25 17:21:00,
2016-07-25 12:26:00,68.5,67.3,30.10,ENE,61,2.5,8.5,96,0.12,,,1.33,WSDL version 536,2016-07-25 17:26:00,
2016-07-25 12:31:00,68.7,67.5,30.10,NW,308,1.7,6.5,96,0.12,,,1.33,WSDL version 536,2016-07-25 17:31:00,
2016-07-25 12:37:00,68.9,67.7,30.10,SE,141,1.6,4.3,96,0.08,,,1.33,WSDL version 536,2016-07-25 17:37:00,
2016-07-25 12:42:00,69.4,68.1,30.10,South,170,1.5,3.4,96,0.08,,,1.33,WSDL version 536,2016-07-25 17:42:00,
2016-07-25 12:47:00,69.8,68.5,30.10,SSE,164,1.9,3.6,96,0.08,,,1.33,WSDL version 536,2016-07-25 17:47:00,
2016-07-25 12:52:00,70.1,68.9,30.10,SSE,153,1.7,4.7,96,0.08,,,1.33,WSDL version 536,2016-07-25 17:52:00,
2016-07-25 12:57:00,70.5,69.2,30.10,ESE,123,2.3,4.7,96,0.04,,,1.33,WSDL version 536,2016-07-25 17:57:00,
2016-07-25 13:02:00,70.7,69.3,30.10,South,185,2.0,6.5,95,0.04,,,1.33,WSDL version 536,2016-07-25 18:02:00,
2016-07-25 13:07:00,71.0,69.5,30.07,SSE,149,3.2,6.5,95,0.04,,,1.33,WSDL version 536,2016-07-25 18:07:00,
2016-07-25 13:12:00,71.2,69.7,30.07,SE,131,3.5,7.6,95,0.04,,,1.33,WSDL version 536,2016-07-25 18:12:00,
2016-07-25 13:17:00,71.6,70.0,30.07,SSE,167,1.6,7.6,95,0.00,,,1.33,WSDL version 536,2016-07-25 18:17:00,
2016-07-25 13:22:00,71.8,70.2,30.04,SE,140,3.2,7.4,95,0.00,,,1.33,WSDL version 536,2016-07-25 18:22:00,
2016-07-25 13:28:00,72.1,70.3,30.04,ENE,75,2.8,7.4,94,0.00,,,1.33,WSDL version 536,2016-07-25 18:28:00,
2016-07-25 13:33:00,72.4,70.6,30.04,ENE,75,2.2,5.6,94,0.00,,,1.33,WSDL version 536,2016-07-25 18:33:00,
2016-07-25 13:38:00,72.8,70.7,30.04,East,90,2.2,5.6,93,0.00,,,1.33,WSDL version 536,2016-07-25 18:38:00,
2016-07-25 13:43:00,73.1,70.7,30.04,East,83,2.5,4.7,92,0.00,,,1.33,WSDL version 536,2016-07-25 18:43:00,
2016-07-25 13:48:00,73.3,71.2,30.04,ESE,113,0.7,4.7,93,0.00,,,1.33,WSDL version 536,2016-07-25 18:48:00,
2016-07-25 13:53:00,73.6,71.2,30.01,ENE,75,2.2,3.1,92,0.00,,,1.33,WSDL version 536,2016-07-25 18:53:00,
2016-07-25 13:58:00,74.1,71.2,30.01,East,98,1.4,3.1,90,0.00,,,1.33,WSDL version 536,2016-07-25 18:58:00,
2016-07-25 14:03:00,74.5,71.8,30.01,East,83,1.0,3.1,91,0.00,,,1.33,WSDL version 536,2016-07-25 19:03:00,
2016-07-25 14:08:00,74.8,71.5,30.01,ENE,75,1.9,4.9,90,0.00,,,1.33,WSDL version 536,2016-07-25 19:08:00,
2016-07-25 14:22:00,75.2,71.6,30.01,East,90,2.2,5.4,89,0.00,,,1.33,WSDL version 536,2016-07-25 19:22:00,
2016-07-25 14:27:00,75.9,72.0,29.98,SSE,153,2.0,5.4,88,0.00,,,1.33,WSDL version 536,2016-07-25 19:27:00,